Home   Weather   Paris   Past weeks
Flag for USA

Past Weather in Paris, Maryland, USA — Yesterday and Last 2 Weeks

Now
71 °F

Light rain. Mostly cloudy.


Feels Like: 72 °F
Forecast: 75 / 69 °F
Wind: 8 mph from West

Location: Reagan National Airport

Current Time: Jul 23, 2019 at 7:28:58 am

Latest Report: Jul 23, 2019 at 6:52 am


Visibility: 10 mi

Pressure: 29.88 "Hg

Humidity: 78%

Dew Point: 64 °F

Location of ParisLocation

Past Weather in Paris — Graph

°F

Paris Temperature Yesterday

Maximum temperature yesterday: 94 °F (at 1:52 pm)
Minimum temperature yesterday: 76 °F (at 11:52 pm)
Average temperature yesterday: 84 °F

High & Low Weather Summary for the Past Weeks

 TemperatureHumidityPressure
High98 °F (Jul 21, 1:52 pm)97% (Jul 8, 9:28 am)30.12 "Hg (Jul 8, 9:28 am)
Low68 °F (Jul 9, 4:52 am)36% (Jul 13, 3:52 pm)29.75 "Hg (Jul 22, 3:54 pm)
Average83 °F67%29.94 "Hg
* Reported Jul 8 5:52 am — Jul 23 5:57 am, Paris. Weather by CustomWeather, © 2019

Note: Actual official high and low records may vary slightly from our data, if they occured in-between our weather recording intervals... More about our weather records

Advertising

Paris Weather History for the Previous 24 Hours

Scroll right to see more
 ConditionsComfort  
Time TempWeatherWind HumidityBarometerVisibility
5:57 am
Tue, Jul 23
71 °FMostly cloudy.10 mph78%29.87 "Hg10 mi
4:52 am71 °FMostly cloudy.10 mph81%29.83 "Hg10 mi
4:34 am70 °FLight rain. Mostly cloudy.10 mph81%29.83 "Hg10 mi
3:52 am70 °FMostly cloudy.14 mph81%29.81 "Hg10 mi
2:52 am72 °FMostly cloudy.15 mph81%29.80 "Hg10 mi
1:58 am74 °FLight rain. Overcast.21 mph88%29.78 "Hg7 mi
12:52 am76 °FOvercast.6 mph77%29.78 "Hg10 mi
11:52 pm
Mon, Jul 22
76 °FOvercast.8 mph74%29.79 "Hg10 mi
10:52 pm77 °FMostly cloudy.14 mph71%29.79 "Hg10 mi
9:52 pm77 °FPassing clouds.13 mph74%29.78 "Hg10 mi
8:52 pm80 °FRain. Partly cloudy.21 mph71%29.79 "Hg10 mi
7:52 pm88 °FBroken clouds.15 mph57%29.78 "Hg10 mi
6:52 pm84 °FBroken clouds.5 mph67%29.77 "Hg10 mi
5:52 pm85 °FBroken clouds.8 mph61%29.77 "Hg10 mi
4:52 pm84 °FPartly sunny.14 mph63%29.77 "Hg10 mi
4:08 pm91 °FPartly sunny.13 mph52%29.75 "Hg10 mi
3:54 pm93 °FThundershowers. Passing clouds.16 mph47%29.75 "Hg10 mi
3:25 pm93 °FThunderstorms. Broken clouds.18 mph46%29.76 "Hg10 mi
2:52 pm92 °FBroken clouds.10 mph51%29.76 "Hg10 mi
1:52 pm94 °FScattered clouds.14 mph49%29.78 "Hg10 mi
12:52 pm91 °FScattered clouds.15 mph56%29.81 "Hg10 mi
11:52 am88 °FScattered clouds.13 mph63%29.83 "Hg10 mi
10:52 am86 °FScattered clouds.12 mph70%29.84 "Hg10 mi
9:52 am84 °FPassing clouds.3 mph70%29.85 "Hg10 mi
8:52 am82 °FPassing clouds.7 mph70%29.86 "Hg10 mi
7:52 am81 °FPassing clouds.No wind72%29.86 "Hg10 mi
Weather by CustomWeather, © 2019

See weather overview